FW7847 Weather Reports


time (UTC)temp
C
wind
direction
speed
KPH
gust
KPH
rain 1hr
cm
rain 24hr
cm
rain mn
cm
humidity
%
barometer
mb
20260506165516 8 272 9.7 19.3 0.00 0.00 0.00 60 1014.4
20260506165012 8 277 8.0 22.5 0.00 0.00 0.00 60 1014.4
20260506164509 8 277 1.6 16.1 0.00 0.00 0.00 58 1014.2
20260506164006 8 261 8.0 14.5 0.00 0.00 0.00 57 1014.0
20260506163502 8 250 11.3 19.3 0.00 0.00 0.00 57 1014.0
20260506162956 8 290 19.3 24.1 0.00 0.00 0.00 58 1014.1
20260506162454 8 264 8.0 8.0 0.00 0.00 0.00 58 1014.3
20260506161951 8 317 12.9 24.1 0.00 0.00 0.00 58 1014.4
20260506161449 8 52 1.6 16.1 0.00 0.00 0.00 59 1014.3
20260506160946 9 256 32.2 38.6 0.00 0.00 0.00 56 1014.2
20260506160443 10 33 3.2 4.8 0.00 0.00 0.00 57 1014.1
20260506155940 8 233 6.4 8.0 0.00 0.00 0.00 60 1014.1
20260506155438 8 294 14.5 19.3 0.00 0.00 0.00 58 1014.0
20260506153605 10 278 16.1 24.1 0.00 0.00 0.00 57 1013.7
20260506153102 10 238 14.5 22.5 0.00 0.00 0.00 57 1013.7
20260506152559 8 317 9.7 14.5 0.00 0.00 0.00 58 1013.8
20260506152057 9 310 19.3 38.6 0.00 0.00 0.00 58 1013.9
20260506151555 10 236 6.4 16.1 0.00 0.00 0.00 56 1013.8
20260506151052 9 270 12.9 22.5 0.00 0.00 0.00 55 1013.8
20260506150548 9 272 6.4 24.1 0.00 0.00 0.00 56 1013.7
20260506150045 8 232 12.9 14.5 0.00 0.00 0.00 57 1013.6
20260506145542 8 225 3.2 14.5 0.00 0.00 0.00 63 1013.7
20260506145039 9 248 9.7 11.3 0.00 0.00 0.00 63 1013.5
20260506144536 9 236 3.2 8.0 0.00 0.00 0.00 65 1013.5
20260506144033 8 22 11.3 14.5 0.00 0.00 0.00 67 1013.5
20260506143531 9 268 4.8 8.0 0.00 0.00 0.00 66 1013.5
20260506143029 9 232 1.6 3.2 0.00 0.00 0.00 66 1013.5
20260506142526 8 336 11.3 14.5 0.00 0.00 0.00 69 1013.6
20260506142025 8 347 12.9 16.1 0.00 0.00 0.00 69 1013.4
20260506141522 8 61 4.8 8.0 0.00 0.00 0.00 70 1013.3
20260506141020 8 283 9.7 19.3 0.00 0.00 0.00 70 1013.5
20260506140517 7 253 4.8 11.3 0.00 0.00 0.00 70 1013.4
20260506140015 7 257 3.2 14.5 0.00 0.00 0.00 72 1013.3
20260506135511 7 333 9.7 16.1 0.00 0.00 0.00 71 1013.2
20260506135007 7 271 3.2 11.3 0.00 0.00 0.00 71 1013.2
20260506134504 7 254 3.2 14.5 0.00 0.00 0.00 71 1013.3
20260506134000 7 309 6.4 19.3 0.00 0.00 0.00 72 1013.3
20260506133457 7 247 1.6 14.5 0.00 0.00 0.00 71 1013.0
20260506132954 8 241 8.0 16.1 0.00 0.00 0.00 71 1013.0
20260506132451 7 276 11.3 22.5 0.00 0.00 0.00 73 1012.8
20260506131948 8 244 3.2 16.1 0.00 0.00 0.00 74 1012.6
20260506131445 7 288 12.9 16.1 0.00 0.00 0.00 77 1012.5
20260506130942 7 296 9.7 19.3 0.00 0.00 0.00 76 1012.5
20260506130439 7 272 6.4 11.3 0.00 0.00 0.00 78 1012.5
20260506125936 7 253 6.4 14.5 0.00 0.00 0.00 80 1012.4
20260506125435 7 306 16.1 22.5 0.00 0.00 0.00 80 1012.5
20260506124932 7 266 6.4 16.1 0.00 0.00 0.00 81 1012.4
20260506124430 7 269 6.4 14.5 0.00 0.00 0.00 79 1012.4
20260506123927 7 282 4.8 14.5 0.00 0.00 0.00 80 1011.9
20260506123425 7 277 12.9 16.1 0.00 0.00 0.00 79 1012.2
20260506122922 6 262 8.0 27.4 0.00 0.00 0.00 81 1012.2
20260506122419 7 285 11.3 16.1 0.00 0.00 0.00 81 1012.1
20260506121918 7 349 11.3 14.5 0.00 0.00 0.00 81 1012.0
20260506121414 7 286 6.4 8.0 0.00 0.00 0.00 80 1011.9
20260506120911 6 249 8.0 8.0 0.00 0.00 0.00 81 1011.7
20260506120409 6 251 8.0 8.0 0.00 0.00 0.00 81 1011.7
20260506115906 6 232 0.0 8.0 0.00 0.00 0.00 80 1011.8
20260506115404 6 270 11.3 14.5 0.00 0.00 0.00 79 1011.7
20260506114902 6 238 4.8 8.0 0.00 0.00 0.00 79 1011.6
20260506114359 6 232 3.2 14.5 0.00 0.00 0.00 79 1011.6
20260506113858 6 232 1.6 4.8 0.00 0.00 0.00 80 1011.6
20260506113355 5 256 4.8 8.0 0.00 0.00 0.00 80 1011.6
20260506112851 5 239 3.2 4.8 0.00 0.00 0.00 80 1011.6
20260506112348 5 239 3.2 4.8 0.00 0.00 0.00 80 1011.6
20260506111846 5 239 3.2 4.8 0.00 0.00 0.00 80 1011.5
20260506111344 5 246 1.6 4.8 0.00 0.00 0.00 80 1011.2
20260506110841 5 241 1.6 4.8 0.00 0.00 0.00 80 1011.2
20260506110338 5 238 3.2 3.2 0.00 0.00 0.00 80 1011.3
20260506105835 5 236 0.0 4.8 0.00 0.00 0.00 79 1010.9
20260506105331 5 260 3.2 4.8 0.00 0.00 0.00 79 1011.0
20260506104829 5 238 1.6 3.2 0.00 0.00 0.00 78 1010.9
20260506104327 5 236 1.6 4.8 0.00 0.00 0.00 78 1010.9
20260506103824 5 236 0.0 3.2 0.00 0.00 0.00 77 1010.7
20260506103321 6 236 0.0 3.2 0.00 0.00 0.00 76 1010.9
20260506102819 6 246 3.2 4.8 0.00 0.00 0.00 76 1010.8
20260506102316 6 234 0.0 4.8 0.00 0.00 0.00 75 1010.8
20260506101814 6 260 3.2 8.0 0.00 0.00 0.00 74 1011.0
20260506101309 6 253 3.2 8.0 0.00 0.00 0.00 73 1010.9
20260506100808 6 265 4.8 16.1 0.00 0.00 0.00 73 1010.8
20260506100306 6 239 0.0 8.0 0.00 0.00 0.00 72 1010.7
20260506095804 6 237 4.8 8.0 0.00 0.00 0.00 72 1010.6
20260506095300 6 233 4.8 8.0 0.00 0.00 0.00 71 1010.5
20260506094757 6 258 6.4 8.0 0.00 0.00 0.00 72 1010.3
20260506094256 6 253 4.8 8.0 0.00 0.00 0.00 71 1010.2
20260506093754 6 235 3.2 11.3 0.00 0.00 0.00 71 1010.3
20260506093250 7 231 4.8 4.8 0.00 0.00 0.00 70 1010.0
20260506092749 7 268 4.8 8.0 0.00 0.00 0.00 70 1010.0
20260506092246 7 268 4.8 8.0 0.00 0.00 0.00 69 1010.2
20260506091743 7 235 0.0 4.8 0.00 0.00 0.00 69 1010.3
20260506091241 7 237 1.6 4.8 0.00 0.00 0.00 69 1010.3
20260506090738 7 248 4.8 14.5 0.00 0.00 0.00 69 1010.2
20260506090235 7 290 4.8 8.0 0.00 0.00 0.00 68 1010.1
20260506085732 7 242 3.2 4.8 0.00 0.00 0.00 68 1010.2
20260506085228 7 237 1.6 3.2 0.00 0.00 0.00 68 1010.1
20260506084725 7 236 3.2 3.2 0.00 0.00 0.00 68 1010.1
20260506084221 7 234 0.0 4.8 0.00 0.00 0.00 67 1010.0
20260506083718 7 236 0.0 4.8 0.00 0.00 0.00 67 1010.0
20260506083216 7 260 9.7 11.3 0.00 0.00 0.00 67 1010.2
20260506082713 7 256 4.8 16.1 0.00 0.00 0.00 67 1010.1
20260506082208 7 239 3.2 8.0 0.00 0.00 0.00 67 1010.0
20260506081706 7 232 1.6 3.2 0.00 0.00 0.00 67 1010.1
20260506081204 7 239 3.2 4.8 0.00 0.00 0.00 67 1010.2
20260506080701 7 249 4.8 8.0 0.00 0.00 0.00 66 1010.0
20260506080158 7 242 0.0 3.2 0.00 0.00 0.00 66 1010.2
20260506073142 7 250 0.0 4.8 0.00 0.00 0.00 64 1010.1
20260506072638 7 261 4.8 8.0 0.00 0.00 0.00 65 1009.9
20260506072137 7 252 9.7 16.1 0.00 0.00 0.00 64 1010.1
20260506071634 7 245 1.6 8.0 0.00 0.00 0.00 64 1009.9
20260506071131 7 229 0.0 3.2 0.00 0.00 0.00 64 1009.8
20260506070628 7 235 4.8 4.8 0.00 0.00 0.00 64 1010.1
20260506070125 7 246 8.0 11.3 0.00 0.00 0.00 63 1010.0
20260506062057 8 236 3.2 4.8 0.00 0.00 0.00 64 1010.0
20260506061552 8 262 3.2 4.8 0.00 0.00 0.00 64 1010.2
20260506061050 8 236 6.4 8.0 0.00 0.00 0.00 64 1010.3
20260506060548 8 221 0.0 4.8 0.00 0.00 0.00 66 1010.4
20260506051017 8 234 0.0 3.2 0.00 0.00 0.00 64 1009.9
20260506050515 8 276 9.7 14.5 0.00 0.00 0.00 62 1009.8
20260506045005 8 243 4.8 11.3 0.00 0.00 0.00 62 1010.3
20260506044503 8 234 3.2 8.0 0.00 0.00 0.00 63 1010.2
20260506043959 8 248 8.0 11.3 0.00 0.00 0.00 63 1010.2
20260506043457 8 240 6.4 11.3 0.00 0.00 0.00 62 1010.0
20260506042955 8 233 1.6 4.8 0.00 0.00 0.00 62 1010.0
20260506042454 8 235 3.2 8.0 0.00 0.00 0.00 61 1009.7
20260506041952 8 236 6.4 16.1 0.00 0.00 0.00 61 1009.9
20260506041450 8 253 8.0 14.5 0.00 0.00 0.00 61 1009.5
20260506040947 8 252 8.0 16.1 0.00 0.00 0.00 61 1009.9
20260506040444 8 246 8.0 14.5 0.00 0.00 0.00 62 1010.0
20260506035940 8 243 6.4 14.5 0.00 0.15 0.15 64 1010.0
20260506035437 8 241 4.8 8.0 0.00 0.15 0.15 64 1009.8
20260506034934 8 257 8.0 16.1 0.00 0.15 0.15 61 1010.1
20260506034431 8 247 4.8 14.5 0.00 0.15 0.15 61 1009.9
20260506033928 8 240 8.0 16.1 0.00 0.15 0.15 62 1010.1
20260506033426 8 232 3.2 14.5 0.00 0.15 0.15 63 1009.9
20260506032922 8 221 0.0 3.2 0.00 0.15 0.15 62 1010.0
20260506032419 8 235 4.8 8.0 0.00 0.15 0.15 62 1010.2
20260506031916 8 230 0.0 3.2 0.00 0.15 0.15 64 1010.0
20260506031413 8 227 0.0 0.0 0.00 0.15 0.15 63 1010.1
20260506030911 8 235 1.6 8.0 0.00 0.15 0.15 65 1010.3
20260506030409 8 235 0.0 4.8 0.00 0.15 0.15 65 1009.9
20260506025905 8 233 11.3 19.3 0.00 0.15 0.15 61 1010.1
20260506025402 8 253 8.0 14.5 0.00 0.15 0.15 60 1009.9
20260506024859 8 228 0.0 0.0 0.00 0.15 0.15 60 1010.0
20260506024356 9 237 3.2 3.2 0.00 0.15 0.15 60 1010.2
20260506023852 9 235 4.8 8.0 0.00 0.15 0.15 60 1010.2
20260506023349 9 234 4.8 11.3 0.00 0.15 0.15 59 1010.1
20260506022846 9 235 0.0 8.0 0.00 0.15 0.15 61 1010.1
20260506022343 9 251 8.0 11.3 0.00 0.15 0.15 58 1009.9
20260506021841 9 228 0.0 3.2 0.00 0.15 0.15 58 1010.0
20260506021338 9 237 1.6 4.8 0.00 0.15 0.15 59 1009.8
20260506020834 9 253 3.2 8.0 0.00 0.15 0.15 57 1010.0
20260506020333 9 234 0.0 3.2 0.00 0.15 0.15 61 1009.9
20260506015830 9 217 1.6 4.8 0.00 0.15 0.15 58 1010.1
20260506015327 9 241 3.2 3.2 0.00 0.15 0.15 59 1009.9
20260506014824 10 237 8.0 8.0 0.00 0.15 0.15 56 1009.9
20260506014321 10 234 1.6 8.0 0.00 0.15 0.15 57 1009.4
20260506013817 10 232 1.6 4.8 0.00 0.15 0.15 55 1009.5
20260506013315 10 260 8.0 16.1 0.00 0.15 0.15 54 1009.5
20260506012811 10 235 0.0 11.3 0.00 0.15 0.15 57 1009.5
20260506012308 10 247 1.6 4.8 0.00 0.15 0.15 57 1009.4
20260506011805 10 216 4.8 8.0 0.00 0.15 0.15 55 1009.3
20260506011302 10 224 0.0 0.0 0.00 0.15 0.15 55 1009.3
20260506010800 10 239 0.0 3.2 0.00 0.15 0.15 54 1009.3
20260506010257 10 276 4.8 8.0 0.00 0.15 0.15 53 1009.3
20260506005754 10 244 1.6 4.8 0.00 0.15 0.15 53 1009.2
20260506005251 10 240 3.2 4.8 0.00 0.15 0.15 54 1009.3
20260506004747 10 243 6.4 19.3 0.00 0.15 0.15 51 1009.5
20260506004245 10 250 0.0 8.0 0.00 0.15 0.15 53 1009.3
20260506003740 10 252 11.3 14.5 0.00 0.15 0.15 50 1009.3
20260506003237 10 233 3.2 19.3 0.00 0.15 0.15 51 1009.3
20260506002733 10 239 4.8 14.5 0.00 0.15 0.15 51 1009.4
20260506002229 10 249 11.3 14.5 0.00 0.15 0.15 49 1009.3
20260506001725 10 266 4.8 14.5 0.00 0.15 0.15 49 1009.3
20260506001223 10 245 4.8 19.3 0.00 0.15 0.15 49 1009.2
20260506000720 10 258 11.3 16.1 0.00 0.15 0.15 48 1009.1
20260506000219 11 245 4.8 16.1 0.00 0.15 0.15 48 1009.3
20260505235714 11 254 8.0 16.1 0.00 0.15 0.15 48 1009.0
20260505235212 11 270 3.2 11.3 0.00 0.15 0.15 49 1009.2
20260505234709 11 240 6.4 14.5 0.00 0.15 0.15 48 1008.9
20260505234206 11 241 4.8 8.0 0.00 0.15 0.15 48 1008.9
20260505233702 11 235 14.5 19.3 0.00 0.15 0.15 49 1008.8
20260505233200 11 224 8.0 11.3 0.00 0.15 0.15 49 1008.8
20260505232658 11 235 4.8 8.0 0.00 0.15 0.15 49 1008.7
20260505232155 11 252 8.0 11.3 0.00 0.15 0.15 49 1008.7
20260505231651 11 292 9.7 19.3 0.00 0.15 0.15 51 1008.8
20260505231150 11 259 11.3 16.1 0.00 0.15 0.15 52 1008.7
20260505230648 11 244 4.8 8.0 0.00 0.15 0.15 55 1008.6
20260505230145 11 226 0.0 4.8 0.00 0.15 0.15 57 1008.5
20260505225640 11 233 4.8 11.3 0.00 0.15 0.15 56 1008.6
20260505225137 11 215 12.9 16.1 0.00 0.15 0.15 55 1008.6
20260505224633 11 225 3.2 11.3 0.00 0.15 0.15 54 1008.9
20260505224131 11 256 6.4 19.3 0.00 0.15 0.15 56 1009.0
20260505223629 11 252 1.6 14.5 0.00 0.15 0.15 56 1008.9
20260505223124 11 241 3.2 8.0 0.00 0.15 0.15 54 1008.8
20260505222621 11 267 9.7 14.5 0.00 0.15 0.15 53 1008.7
20260505222117 11 250 8.0 22.5 0.00 0.15 0.15 53 1008.8
20260505221614 11 271 8.0 16.1 0.00 0.15 0.15 54 1008.9
20260505221111 11 224 6.4 8.0 0.00 0.15 0.15 55 1008.7
20260505220608 11 223 4.8 19.3 0.00 0.15 0.15 54 1008.8
20260505220106 11 232 16.1 22.5 0.00 0.15 0.15 55 1008.8
20260505215603 11 250 8.0 16.1 0.00 0.15 0.15 57 1008.8
20260505215101 11 234 3.2 11.3 0.00 0.15 0.15 57 1008.8
20260505214559 11 294 12.9 14.5 0.00 0.15 0.15 57 1008.8
20260505214056 11 258 14.5 19.3 0.00 0.15 0.15 56 1008.9
20260505213554 11 258 6.4 24.1 0.00 0.15 0.15 57 1008.8
20260505213050 11 237 11.3 16.1 0.00 0.15 0.15 57 1008.9
20260505212546 11 236 3.2 19.3 0.00 0.15 0.15 58 1008.7
20260505212044 12 245 22.5 33.8 0.00 0.15 0.15 57 1008.7
20260505211540 12 337 14.5 22.5 0.00 0.15 0.15 62 1008.8
20260505211037 12 227 0.0 4.8 0.00 0.15 0.15 65 1008.8
20260505210534 12 248 9.7 16.1 0.00 0.15 0.15 65 1008.9
20260505210031 12 247 4.8 14.5 0.00 0.15 0.15 67 1008.8
20260505205529 12 221 1.6 14.5 0.00 0.15 0.15 67 1009.0
20260505205026 12 251 19.3 22.5 0.00 0.15 0.15 67 1008.9
20260505204524 12 290 6.4 16.1 0.00 0.15 0.15 66 1008.8
20260505204021 12 325 3.2 8.0 0.00 0.15 0.15 66 1008.9
20260505203517 12 215 9.7 16.1 0.00 0.15 0.15 67 1008.8
20260505203014 12 289 4.8 19.3 0.00 0.15 0.15 67 1009.1
20260505202510 12 237 3.2 16.1 0.00 0.15 0.15 66 1008.7
20260505202006 11 238 4.8 14.5 0.00 0.15 0.15 67 1008.7
20260505201504 12 225 11.3 30.6 0.00 0.15 0.15 66 1008.8
20260505201001 12 293 3.2 14.5 0.00 0.15 0.15 65 1008.8
20260505200459 12 251 8.0 24.1 0.00 0.15 0.15 65 1008.7
20260505195954 12 150 8.0 19.3 0.00 0.15 0.15 65 1009.0
20260505195451 12 286 4.8 22.5 0.00 0.15 0.15 65 1008.8
20260505194949 12 246 3.2 11.3 0.00 0.15 0.15 64 1008.8
20260505194446 12 195 9.7 19.3 0.00 0.15 0.15 64 1008.7
20260505193946 12 215 4.8 11.3 0.00 0.15 0.15 65 1008.6
20260505193444 12 227 9.7 22.5 0.00 0.15 0.15 64 1008.8
20260505192941 12 197 6.4 22.5 0.00 0.15 0.15 63 1008.8
20260505192440 12 246 4.8 16.1 0.00 0.15 0.15 63 1009.0
20260505191937 12 225 4.8 16.1 0.00 0.15 0.15 64 1009.0
20260505191436 12 305 12.9 19.3 0.00 0.15 0.15 63 1009.1
20260505190932 12 327 6.4 19.3 0.00 0.15 0.15 64 1008.8
20260505190427 12 236 8.0 11.3 0.00 0.15 0.15 64 1009.0
20260505185923 12 250 4.8 14.5 0.00 0.15 0.15 64 1009.0
20260505185420 12 319 16.1 30.6 0.00 0.15 0.15 63 1009.1
20260505184916 12 286 11.3 16.1 0.00 0.15 0.15 62 1008.8
20260505184413 12 263 8.0 24.1 0.00 0.15 0.15 61 1008.9
20260505183910 12 247 8.0 22.5 0.00 0.15 0.15 61 1009.1
20260505183407 12 239 9.7 22.5 0.00 0.15 0.15 61 1008.8
20260505182903 12 261 9.7 16.1 0.00 0.15 0.15 59 1008.7
20260505182400 12 254 16.1 41.8 0.00 0.15 0.15 59 1008.8
20260505181857 12 290 11.3 19.3 0.00 0.15 0.15 62 1008.6
20260505181354 12 224 16.1 27.4 0.00 0.15 0.15 59 1008.5
20260505180851 12 233 8.0 14.5 0.00 0.15 0.15 64 1008.2
20260505180347 13 298 9.7 22.5 0.00 0.15 0.15 61 1008.3
20260505175844 12 232 4.8 16.1 0.00 0.15 0.15 61 1008.1
20260505175340 12 233 17.7 19.3 0.00 0.15 0.15 63 1008.3
20260505174837 12 300 11.3 14.5 0.00 0.15 0.15 64 1008.0
20260505174335 12 263 6.4 16.1 0.00 0.15 0.15 65 1008.0
20260505173830 12 325 12.9 19.3 0.00 0.15 0.15 67 1007.8
20260505173327 12 245 3.2 14.5 0.00 0.15 0.15 68 1007.9
20260505172824 12 239 3.2 22.5 0.00 0.15 0.15 70 1008.0
20260505172322 12 235 3.2 14.5 0.00 0.15 0.15 73 1008.0
20260505171815 11 282 9.7 16.1 0.00 0.15 0.15 74 1008.1
20260505171313 11 244 0.0 8.0 0.00 0.15 0.15 75 1008.0
20260505170809 11 238 17.7 24.1 0.00 0.15 0.15 75 1007.8
20260505170306 11 288 11.3 19.3 0.00 0.15 0.15 75 1007.9
20260505165801 11 223 3.2 22.5 0.00 0.15 0.15 78 1008.1